Location: Habighorst
(52.7089°N, 10.2278°E)
Time: 20:59:55
(UTC+00:00)

Cosmos 1833 Rocket - Pass Details

Date: 13 January 2026
Orbit: 832 x 838 km, 71.0° (Epoch: 16 February)

Event Time Altitude Azimuth Distance (km) Brightness Sun altitude
Exits shadow 05:40:59 22° 278° (W) 1,750 3.7 -15.0°
Maximum altitude 05:42:16 24° 257° (WSW) 1,665 3.7 -14.8°
Drops below altitude 10° 05:46:40 10° 205° (SSW) 2,442 5.0 -14.2°
Sets 05:49:30 0° 192° (SSW) 3,370 5.9 -13.7°
